Location: Unspecified
(51.0950°N, 12.9690°E)
Time: 21:18:47
(UTC+00:00)

JY1SAT - Pass Details

Date: 28 April 2024
Orbit: 538 x 552 km, 97.5° (Epoch: 25 May)

Event Time Altitude Azimuth Distance (km) Brightness Sun altitude
Exits shadow 20:06:10 16° 174° (S) 1,464 ? -13.7°
Maximum altitude 20:09:14 73° 258° (WSW) 576 ? -14.0°
Drops below altitude 10° 20:13:10 10° 343° (NNW) 1,820 ? -14.4°
Sets 20:15:18 0° 345° (NNW) 2,715 ? -14.7°
